This demonstration page uses our WeatherBlox Daily Observations layout. Learn more.

Left ArrowRight Arrow

Hourly Observations for September 15, 2019

Temp ( °F °C ) Dew Point ( °F °C ) Humidity (%) Winds ( mph kmh ) Pressure ( in mb ) Visibility ( mi km ) Precip ( " mm )
12:54 am 00:54 Clear 76 24.4 67 19.4 74 74 SSW 9 15 29.93 1014 10 16 0.00 0.00
1:54 am 01:54 Clear 74 23.3 66 18.9 76 76 SSW 9 15 29.93 1014 10 16 0.00 0.00
2:54 am 02:54 Clear 73 22.8 65 18.3 76 76 SSW 7 11 29.94 1014 10 16 0.00 0.00
3:54 am 03:54 Clear 70 21.1 64 17.8 82 82 Calm 29.94 1014 10 16 0.00 0.00
4:54 am 04:54 Clear 69 20.6 63 17.2 81 81 S 6 9 29.95 1014 10 16 0.00 0.00
5:54 am 05:54 Clear 67 19.4 63 17.2 87 87 Calm 29.95 1014 10 16 0.00 0.00
6:54 am 06:54 Clear 64 17.8 61 16.1 90 90 S 6 9 29.96 1015 10 16 0.00 0.00
7:54 am 07:54 Sunny 66 18.9 63 17.2 90 90 S 5 7 29.98 1015 9 14 0.00 0.00
8:54 am 08:54 Sunny 72 22.2 64 17.8 76 76 Calm 29.98 1015 10 16 0.00 0.00
9:54 am 09:54 Sunny 75 23.9 65 18.3 71 71 SW 5 7 29.99 1016 10 16 0.00 0.00
10:54 am 10:54 Sunny 81 27.2 66 18.9 61 61 Calm 29.98 1015 10 16 0.00 0.00
11:54 am 11:54 Sunny 85 29.4 66 18.9 53 53 VRB 3 6 29.98 1015 10 16 0.00 0.00
12:54 pm 12:54 Sunny 88 31.1 65 18.3 46 46 SW 3 6 29.98 1015 10 16 0.00 0.00
1:54 pm 13:54 Sunny 90 32.2 65 18.3 44 44 Calm 29.97 1015 10 16 0.00 0.00
2:54 pm 14:54 Sunny 93 33.9 62 16.7 36 36 ESE 5 7 29.95 1014 10 16 0.00 0.00
3:54 pm 15:54 Sunny 94 34.4 60 15.6 32 32 VRB 3 6 29.94 1014 10 16 0.00 0.00
4:54 pm 16:54 Sunny 94 34.4 54 12.2 26 26 SE 8 13 29.93 1014 10 16 0.00 0.00
5:54 pm 17:54 Sunny 91 32.8 65 18.3 42 42 SE 10 17 29.94 1014 10 16 0.00 0.00
6:54 pm 18:54 Sunny 86 30 67 19.4 53 53 S 10 17 29.94 1014 10 16 0.00 0.00
7:54 pm 19:54 Clear 82 27.8 67 19.4 60 60 Calm 29.94 1014 10 16 0.00 0.00
8:54 pm 20:54 Clear 80 26.7 67 19.4 64 64 SE 3 6 29.95 1014 10 16 0.00 0.00
9:54 pm 21:54 Clear 77 25 68 20 74 74 SE 5 7 29.95 1014 10 16 0.00 0.00
10:54 pm 22:54 Clear 76 24.4 68 20 77 77 SSE 3 6 29.96 1015 10 16 0.00 0.00
11:54 pm 23:54 Clear 75 23.9 68 20 79 79 SSW 3 6 29.96 1014 10 16 0.00 0.00

Powered by AerisWeather